SL-23 R/B, 34112

Orbit data source: Space-Track

SL-23 R/B, 34112 is space debris in HEO originally from a launch on Thu, 26 Feb 2009 UTC launched from the Tyuratam Missile And Space Complex (TTMTR). Debris objects in space refer to the collection of defunct objects orbiting the Earth. Examples of debris include non-operational satellites, rocket bodies, and fragments generated from explosions, collisions, or faulty payload assembly.

Loading next visibility...
Identifier
34112, 2009-009B
Orbit
HEO
Country
Flag of CISCIS
Related business
Flag of RUSpace International Services (RU)
Manufacturer
RKKE
Mission
Spacecraft
Bus & Motor
BLOK DM2, 11D58M
Mass
2,540 kg wet, 2,540 kg dry
Launch date (UTC)
2009-02-26 (17 years ago)
Launch vehicle
Unknown
Launch site
Tyuratam Missile And Space Complex (TTMTR)
Object type
Payload
Rocket body
Debris
Shape & HBR
Cyl + 1 Nozzle, 3.0 m
Radar Cross Section
22.521 m², Large (>1 m²)

Expand to show TLE details & history
Last TLE update: 2 days ago

TLE from 2 days ago
0 SL-23 R/B
1 34112U 09009B   25244.26786698 -.00000056  00000-0  00000-0 0  9990
2 34112  35.1814 341.4733 6894199  65.2928 349.8167  2.20444771132991
Epoch: 2025-09-01T06:25Z
TLE epoch observation values (Epoch: 2025-09-01T06:25:43.707Z)
Latitude
1.12295°
Longitude
-94.02892°
Altitude
3,628.749 km
Speed
7.98 km/s
True Right ascension
22h 52m 18s
True Declination
1° 07' 05"
Sunlit
Object was in full shadow at epoch
Visualization orbit readout
Latitude
Unknown
Longitude
Unknown
Altitude
Unknown
Speed
Unknown
Apparent Right ascension
Unknown
Apparent Declination
Unknown
Sunlit
N/A
Visualization observer readout
Local Sidereal Time
20:22:35
Azimuth
Unknown
Elevation
Unknown
Doppler factor
Unknown
Orbital elements
Apogee altitude
35,757.265 km
Perigee altitude
1,367.964 km
Semi-major axis
24,940.751 km
Eccentricity
0.68942
Inclination
35.1814°
RAAN
341.4733°
Arg. of periapsis
65.2928°
True anomaly
296.29104°
Mean anomaly
349.8167°
Eccentric anomaly
330.16468°
Mean motion
0.55103 °/min
Orbital period
653.32 mins
BSTAR
0
Loading maneuver chart data...
Computing Atmospheric mass density...
Loading historical data...
Loading historical data...
Loading historical data...
Loading historical data...
Loading historical data...
Loading historical data...
Loading historical data...
Other satellites on launch #9 in the year 2009 (2009-02-26 UTC)

Documentation

Showing up to 5 results
|